EW8697 Weather Reports


Display with metric or nautical units.
time (UTC)temp
F
wind
direction
speed
MPH
gust
MPH
rain 1hr
in
rain 24hr
in
rain mn
in
humidity
%
barometer
mb
20260510103016 46 123 0.0 0.0 0.00 0.45 0.00 92 1007.5
20260510101528 46 123 0.0 0.0 0.00 0.45 0.00 92 1007.3
20260510100027 47 123 0.0 0.0 0.00 0.45 0.00 92 1007.3
20260510094540 47 123 0.0 0.0 0.00 0.45 0.00 91 1007.0
20260510093020 47 123 0.0 0.0 0.00 0.45 0.00 92 1006.7
20260510091522 47 123 0.0 0.0 0.00 0.45 0.00 92 1006.2
20260510090029 48 123 0.0 0.0 0.00 0.45 0.00 91 1006.1
20260510084524 49 123 0.0 0.0 0.00 0.51 0.00 91 1006.0
20260510083023 50 123 0.0 0.0 0.00 0.51 0.00 91 1006.0
20260510081518 50 123 0.0 0.0 0.00 0.51 0.00 91 1005.9
20260510080018 51 123 0.0 0.0 0.00 0.51 0.00 91 1005.5
20260510074529 51 123 0.0 0.0 0.00 0.61 0.00 91 1005.4
20260510073028 52 123 0.0 0.0 0.00 0.61 0.00 91 1005.0
20260510071520 52 123 0.0 0.0 0.00 0.61 0.00 91 1004.9
20260510070022 53 124 0.0 0.0 0.00 0.61 0.00 90 1004.7
20260510064509 52 124 0.0 0.0 0.00 0.67 0.00 91 1004.6
20260510063031 53 124 0.0 0.0 0.00 0.67 0.00 91 1004.4
20260510061526 53 124 0.0 0.0 0.00 0.67 0.00 91 1004.5
20260510060025 53 123 0.0 0.0 0.00 0.67 0.00 91 1004.5
20260510054518 53 124 0.0 0.0 0.00 0.75 0.00 90 1003.8
20260510053036 53 124 0.0 0.0 0.00 0.75 0.00 90 1003.9
20260510051513 53 123 0.0 0.0 0.00 0.75 0.00 91 1003.4
20260510050026 53 124 0.0 0.0 0.00 0.75 0.00 91 1003.3
20260510044521 54 123 0.0 0.0 0.00 0.79 0.00 91 1003.3
20260510043036 54 124 0.0 0.0 0.01 0.79 0.00 91 1003.4
20260510041522 54 124 0.0 0.0 0.03 0.79 0.00 91 1003.5
20260510040019 54 124 0.0 0.0 0.03 0.79 0.00 91 1003.8
20260510034524 55 123 0.0 1.0 0.03 0.81 0.79 91 1003.7
20260510033021 54 124 0.0 0.0 0.05 0.80 0.78 91 1003.8
20260510031523 54 123 0.0 0.0 0.04 0.78 0.76 91 1003.6
20260510030013 55 124 0.0 0.0 0.07 0.78 0.76 91 1003.5
20260510024528 55 124 1.0 12.0 0.07 0.83 0.76 91 1003.7
20260510023027 54 124 0.0 0.0 0.04 0.80 0.73 90 1003.0
20260510021535 54 124 0.0 0.0 0.03 0.79 0.72 91 1002.7
20260510020018 54 123 0.0 0.0 0.00 0.76 0.69 90 1002.8
20260510014519 54 123 0.0 0.0 0.00 0.81 0.69 90 1002.6
20260510013030 54 123 0.0 0.0 0.00 0.81 0.69 90 1002.4
20260510011539 54 123 0.0 0.0 0.00 0.81 0.69 90 1002.4
20260510010024 54 124 0.0 0.0 0.03 0.81 0.69 90 1002.3
20260510004526 55 124 0.0 0.0 0.12 0.92 0.69 90 1002.3
20260510003019 55 123 0.0 0.0 0.33 0.92 0.69 90 1002.3
20260510001514 55 124 0.0 0.0 0.34 0.92 0.69 90 1002.3
20260510000007 55 124 0.0 0.0 0.30 0.88 0.65 89 1002.8
20260509234526 57 123 0.0 7.0 0.22 0.83 0.56 85 1002.8
20260509233019 64 123 0.0 4.0 0.00 0.61 0.35 66 1001.7
20260509231520 67 123 0.0 4.0 0.00 0.61 0.35 58 1000.1
20260509230016 67 123 0.0 0.0 0.00 0.61 0.35 57 1000.2
20260509224510 68 124 0.0 0.0 0.00 0.62 0.35 57 999.8
20260509223031 68 124 0.0 1.0 0.00 0.62 0.35 54 1000.0
20260509221524 69 123 0.0 4.0 0.00 0.62 0.35 54 999.8
20260509220025 69 123 0.0 4.0 0.00 0.62 0.35 53 999.9
20260509214518 69 123 0.0 1.0 0.00 0.62 0.35 53 999.9
20260509213025 69 123 0.0 0.0 0.00 0.62 0.35 53 999.9
20260509211513 69 123 0.0 2.0 0.00 0.62 0.35 54 1000.1
20260509204525 68 123 0.0 0.0 0.00 0.66 0.35 56 1000.5
20260509203028 68 122 0.0 10.0 0.00 0.66 0.35 55 1000.8
20260509201522 68 124 0.0 0.0 0.00 0.66 0.35 59 1001.0
20260509200021 68 123 0.0 0.0 0.00 0.66 0.35 60 1001.1
20260509194516 67 123 0.0 6.0 0.00 0.66 0.35 61 1001.3
20260509193031 66 123 0.0 3.0 0.00 0.66 0.35 63 1001.7
20260509191537 66 123 0.0 3.0 0.00 0.66 0.35 61 1001.9
20260509190030 66 123 0.0 1.0 0.00 0.66 0.35 62 1002.0
20260509184531 65 123 0.0 0.0 0.00 0.67 0.35 63 1002.1
20260509183020 64 124 0.0 0.0 0.00 0.67 0.35 67 1002.1
20260509181529 64 123 0.0 1.0 0.00 0.67 0.35 66 1002.3
20260509180025 63 124 0.0 6.0 0.00 0.67 0.35 69 1002.2
20260509174625 63 124 0.0 5.0 0.00 0.69 0.35 68 1002.3
20260509173019 63 124 0.0 1.0 0.00 0.69 0.35 68 1002.4
20260509171515 62 124 0.0 3.0 0.00 0.69 0.35 70 1001.9
20260509170011 62 124 0.0 0.0 0.00 0.69 0.35 73 1002.5
20260509164528 61 124 0.0 0.0 0.00 0.69 0.35 75 1002.8
20260509163034 60 123 0.0 4.0 0.00 0.69 0.35 76 1002.7
20260509161516 58 123 0.0 0.0 0.00 0.69 0.35 80 1002.8
20260509160015 59 124 0.0 1.0 0.00 0.69 0.35 81 1002.8
20260509154516 59 123 0.0 0.0 0.00 0.69 0.35 87 1002.7
20260509153042 57 123 0.0 0.0 0.00 0.69 0.35 91 1002.6
20260509151522 55 124 0.0 0.0 0.00 0.69 0.35 91 1002.7
20260509150021 54 123 0.0 0.0 0.00 0.69 0.35 91 1002.6
20260509144514 54 124 0.0 0.0 0.00 0.69 0.35 90 1002.7
20260509143011 53 123 0.0 0.0 0.00 0.69 0.35 89 1002.7
20260509141531 53 124 0.0 0.0 0.00 0.69 0.35 89 1002.7
20260509140024 53 123 0.0 0.0 0.00 0.69 0.35 89 1002.7
20260509134525 53 124 0.0 0.0 0.00 0.69 0.35 88 1002.7
20260509133020 52 123 0.0 0.0 0.00 0.69 0.35 88 1002.8
20260509131517 52 123 0.0 0.0 0.00 0.69 0.35 88 1002.8
20260509130028 52 124 0.0 0.0 0.00 0.69 0.35 88 1002.8
20260509124530 52 124 0.0 0.0 0.00 0.69 0.35 88 1003.0
20260509123021 51 124 0.0 0.0 0.00 0.69 0.35 88 1003.1
20260509121524 51 124 0.0 0.0 0.00 0.69 0.35 88 1003.2
20260509120013 51 124 0.0 0.0 0.01 0.69 0.35 88 1003.2
20260509114515 51 124 0.0 0.0 0.01 0.69 0.35 88 1003.2
20260509113039 51 124 0.0 0.0 0.01 0.69 0.35 88 1003.2
20260509111525 51 123 0.0 0.0 0.01 0.69 0.35 89 1003.2
20260509110023 51 123 0.0 0.0 0.00 0.68 0.34 89 1002.9
20260509104518 51 123 0.0 0.0 0.00 0.69 0.34 89 1002.8